CZ-6A DEB

Satellite information

Favourite Embed

Satellite Type and Status

DEBRISIN ORBIT

Key statistics

Satellite CZ-6A DEB at a glance.

Uptime

275

Days in orbit

Revolutions

≈ 14.4

Per day

Orbit

LEO

Low Earth Orbit

Inclination

89.0

Latest

Satellite identification and parameters

Extended collection of information and parameters for CZ-6A DEB.

Object identification

Identified? True

Debris? True

Object name: CZ-6A DEB

International designator: 2024-140DL

Object number (NORAD): 60707

Object ID (CCSDS): 60707

Country: PEOPLES REPUBLIC OF CHINA (PRC)

Current information (Y/N): Y

RCS size: SMALL

Orbital parameters

Period: 100.292 minutes

Inclination: 88.972 deg

SMA: 7150.528 km

Apoapsis: 798.024 km

Periapsis: 746.763 km

RAAN: 318.6596 deg

Eccentricy: 0.0035844

Argument of periapsis: 257.0499 deg

Mean anomaly: 102.6695 deg

Mean motion: 14.35805355 rev/day

Mean motion (dot): 0.00000898 rev/day2

B* drag term: 0.00030317 1/REarth

Two-line elements (TLE)

Creation date: May 8, 2025, 3:01 a.m.

Reference frame: TEME

Reference center: EARTH

Epoch: May 7, 2025, 12:29 p.m. UTC

TLE line 0: 0 CZ-6A DEB

TLE line 1: 1 60707U 24140DL 25127.52041599 .00000898 00000-0 30317-3 0 9995

TLE line 2: 2 60707 88.9720 318.6596 0035844 257.0499 102.6695 14.35805355 38485

Live tracking on map

Real-time ground track for satellite CZ-6A DEB.

In-orbit conjunctions

A list of the most updated potential collisions computed for object CZ-6A DEB.

Target Orbit TCA Probability of collision Miss distance Type
IRIDIUM 33 DEB LEO 2025-05-04 07:00:03 0.0002662322 65.0 (m) DEBRIS
CZ-6A DEB LEO 2025-02-21 13:52:30 0.0001462396 898.0 (m) DEBRIS
NOAA 16 DEB SSO 2025-02-08 19:05:54 0.0002857079 593.0 (m) DEBRIS
COSMOS 1275 DEB LEO 2025-01-26 21:46:11 0.0002352172 437.0 (m) DEBRIS
CZ-6A DEB LEO 2024-11-10 13:01:05 0.0002075221 712.0 (m) DEBRIS

Associated space launch

18 Low Earth Orbit communication satellites with Ku, Q and V band payloads for the G60 constellation operated by Shanghai Spacecom Satellite Technology (SSST) with funding backed by the Shanghai local government. Initial constellation will consist of 1296 satellites by 2027 with long term plans to expand it to 12000 satellites.

CZ-6A DEB was lifted into orbit during the mission ‘Long March 6A | G60 Polar Group 01’, on board a Long March 6A space rocket.

The launch took place on Aug. 6, 2024, 6:42 a.m. from Launch Complex 9A.

For more information about the launch, click the button.

Launch to space Long March 6A | G60 Polar Group 01
Long March 6A | G60 Polar Group 01

Agency: N/A

Status: Launch Successful

Launch date: Aug. 6, 2024, 6:42 a.m. UTC

Rocket: Long March 6A

Launch pad: Launch Complex 9A

Location: Taiyuan Satellite Launch Center, People's Republic of China

...

Latest news about this satellite

News about space launch
Brightness of first Chinese broadband constellation satellites alarms astronomers

The first satellites of a Chinese broadband constellation are significantly brighter than those of Western systems, posing a new challenge for astronomers.

News about space launch
Chinese rocket stage breaks up into cloud of more than 700 pieces of space debris

HELSINKI — A Chinese Long March 6A rocket’s upper stage has fragmented into a cloud of over 700 pieces of space debris, adding to concerns about long-term orbital safety. China […]

News about space launch
China's Thousand Sails Megaconstellation Kicks Off with Dangerous Debris Field

China's Thousand Sails Megaconstellation Kicks Off with Dangerous Debris Field


Newsletter sign-up

Weekly statistics, charts and insights to help you stay on top of the space industry.